Terug naar catalogus

DELTA 2 DEB

LostHEO
NORAD 28549·DEBRIS·🇺🇸 United States

Gelanceerd Mar 25, 2000 vanaf Vandenberg Space Force Base

Loading…

Volgende Passages (komende 24 uur)

TLE

VerouderdSource: Space-Track

Epoch: Apr 30, 2012, 00:15 UTC

1 28549U 00017E   12121.01063737 -.00000143  00000-0  00000+0 0  9998
2 28549  92.8731 222.7905 7618277 139.8275 313.3119  1.68730734 50005

Volg DELTA 2 DEB in realtime met AllMySat

Download on the App Store